Simultaneous Nadir Overpasses (SNOs) Predictions

Prediction of SNOs between METOP-C and LANDSAT-8 Satellite Orbit:

Table of predicted SNOs for the next 14.0 days since TLE Epoch: 8/26/2022
Index Date (METOP-C) Time (METOP-C) Lat,Lon (METOP-C) SZA (METOP-C ) Date (LANDSAT-8) Time (LANDSAT-8) Lat,Lon (LANDSAT-8) SZA (LANDSAT-8 ) Distance(km) Time Diff (sec)
1 08/28/2022 22:08:58 -81.20, 69.04 106.08 08/28/2022 22:09:29 -81.20, 68.90 106.09 2.41 31
2 08/28/2022 22:59:39 81.21,-123.37 73.97 08/28/2022 22:58:55 81.20,-123.35 73.95 0.38 44
3 08/31/2022 17:43:19 -81.19, 135.29 105.08 08/31/2022 17:43:44 -81.20, 135.34 105.06 0.96 25
4 08/31/2022 18:33:59 81.21, -56.76 75.02 08/31/2022 18:33:10 81.20, -56.94 74.97 3.24 49
5 09/03/2022 13:17:39 -81.20,-158.11 104.01 09/03/2022 13:17:59 -81.19,-158.28 104.03 2.95 20
6 09/03/2022 14:08:19 81.22, 9.82 76.08 09/03/2022 14:07:24 81.22, 9.79 76.05 0.59 55
7 09/06/2022 08:51:59 -81.19, -91.91 102.98 09/06/2022 08:52:13 -81.19, -91.95 102.98 0.93 14
8 09/06/2022 09:42:39 81.21, 75.98 77.11 09/06/2022 09:41:38 81.21, 76.09 77.10 1.87 61
9 09/09/2022 04:26:19 -81.20, -25.36 101.89 09/09/2022 04:26:27 -81.20, -25.31 101.88 0.87 8



Historial Predications of SNOs between METOP-C and LANDSAT-8
